Time,TemperatureF,DewpointF,PressureIn,WindDirection,WindDirectionDegrees,WindSpeedMPH,WindSpeedGustMPH,Humidity,HourlyPrecipIn,Conditions,Clouds,dailyrainin,SoftwareType,DateUTC
2013-11-28 00:01:00,20.1,-12.6,30.01,NNW,335,0.0,0.0,22,0.00,,---,0.08,VWS V14.01,2013-11-28 05:01:00,
2013-11-28 00:02:00,20.1,-12.6,30.01,WSW,258,0.0,0.0,22,0.00,,---,0.08,VWS V14.01,2013-11-28 05:02:00,
2013-11-28 00:07:00,20.1,-12.6,30.01,East,90,0.0,0.0,22,0.00,,---,0.00,VWS V14.01,2013-11-28 05:07:00,
2013-11-28 00:12:00,19.9,-12.8,30.01,ESE,114,0.0,0.0,22,0.00,,---,0.00,VWS V14.01,2013-11-28 05:12:00,
2013-11-28 00:17:00,19.8,-12.9,30.01,East,87,0.0,0.0,22,0.00,,---,0.00,VWS V14.01,2013-11-28 05:17:00,
2013-11-28 00:22:00,19.8,-12.9,30.01,ESE,113,0.0,0.0,22,0.00,,---,0.00,VWS V14.01,2013-11-28 05:22:00,
2013-11-28 00:27:00,19.9,-12.8,30.01,East,81,0.0,0.0,22,0.00,,---,0.00,VWS V14.01,2013-11-28 05:27:00,
2013-11-28 00:32:00,20.1,-12.6,30.01,ESE,116,0.0,0.0,22,0.00,,---,0.00,VWS V14.01,2013-11-28 05:32:00,
2013-11-28 00:37:00,20.3,-12.5,30.01,South,174,0.0,0.0,22,0.00,,---,0.00,VWS V14.01,2013-11-28 05:37:00,
2013-11-28 00:42:00,20.3,-12.5,30.01,SSE,152,0.0,0.0,22,0.00,,---,0.00,VWS V14.01,2013-11-28 05:42:00,
2013-11-28 00:47:00,20.3,-12.5,30.01,SSE,152,0.0,0.0,22,0.00,,---,0.00,VWS V14.01,2013-11-28 05:47:00,
2013-11-28 00:52:00,20.1,-12.6,30.01,SW,218,0.0,0.0,22,0.00,,---,0.00,VWS V14.01,2013-11-28 05:52:00,
2013-11-28 00:57:00,20.1,-12.6,30.03,South,187,0.0,0.0,22,0.00,,---,0.00,VWS V14.01,2013-11-28 05:57:00,
2013-11-28 01:02:00,19.9,-12.8,30.03,South,182,0.0,0.0,22,0.00,,---,0.00,VWS V14.01,2013-11-28 06:02:00,
2013-11-28 01:07:00,19.9,-12.8,30.03,SE,145,0.0,0.0,22,0.00,,---,0.00,VWS V14.01,2013-11-28 06:07:00,
2013-11-28 01:12:00,19.9,-12.8,30.03,SW,216,0.0,0.0,22,0.00,,---,0.00,VWS V14.01,2013-11-28 06:12:00,
2013-11-28 01:18:00,19.9,-12.8,30.03,SW,231,0.0,0.0,22,0.00,,---,0.00,VWS V14.01,2013-11-28 06:18:00,
2013-11-28 01:23:00,19.9,-12.8,30.03,SSW,202,0.0,0.0,22,0.00,,---,0.00,VWS V14.01,2013-11-28 06:23:00,
2013-11-28 01:28:00,19.9,-12.8,30.03,SW,230,0.0,0.0,22,0.00,,---,0.00,VWS V14.01,2013-11-28 06:28:00,
2013-11-28 01:33:00,19.9,-12.8,30.03,SW,214,0.0,0.0,22,0.00,,---,0.00,VWS V14.01,2013-11-28 06:33:00,
2013-11-28 01:38:00,19.9,-12.8,30.03,WSW,251,0.0,0.0,22,0.00,,---,0.00,VWS V14.01,2013-11-28 06:38:00,
2013-11-28 01:43:00,19.9,-12.8,30.03,SSW,202,0.0,0.0,22,0.00,,---,0.00,VWS V14.01,2013-11-28 06:43:00,
2013-11-28 01:48:00,19.9,-12.8,30.03,WSW,242,0.0,0.0,22,0.00,,---,0.00,VWS V14.01,2013-11-28 06:48:00,
2013-11-28 01:53:00,19.9,-12.8,30.03,WSW,240,0.0,0.0,22,0.00,,---,0.00,VWS V14.01,2013-11-28 06:53:00,
2013-11-28 01:58:00,19.9,-12.8,30.03,ESE,110,0.0,0.0,22,0.00,,---,0.00,VWS V14.01,2013-11-28 06:58:00,
2013-11-28 02:03:00,19.9,-12.8,30.03,South,170,0.0,0.0,22,0.00,,---,0.00,VWS V14.01,2013-11-28 07:03:00,
2013-11-28 02:08:00,19.9,-12.8,30.03,East,79,0.0,0.0,22,0.00,,---,0.00,VWS V14.01,2013-11-28 07:08:00,
2013-11-28 02:13:00,19.9,-12.8,30.03,East,92,0.0,0.0,22,0.00,,---,0.00,VWS V14.01,2013-11-28 07:13:00,
2013-11-28 02:18:00,19.8,-12.9,30.03,ESE,120,0.0,0.0,22,0.00,,---,0.00,VWS V14.01,2013-11-28 07:18:00,
2013-11-28 02:24:00,19.8,-12.9,30.03,SSW,200,0.0,0.0,22,0.00,,---,0.00,VWS V14.01,2013-11-28 07:24:00,
2013-11-28 02:29:00,19.8,-12.9,30.03,South,179,0.0,0.0,22,0.00,,---,0.00,VWS V14.01,2013-11-28 07:29:00,
2013-11-28 02:34:00,19.8,-12.9,30.03,SE,131,0.0,0.0,22,0.00,,---,0.00,VWS V14.01,2013-11-28 07:34:00,
2013-11-28 02:39:00,19.6,-13.1,30.03,ESE,103,0.0,0.0,22,0.00,,---,0.00,VWS V14.01,2013-11-28 07:39:00,
2013-11-28 02:44:00,19.6,-13.1,30.03,East,86,0.0,0.0,22,0.00,,---,0.00,VWS V14.01,2013-11-28 07:44:00,
2013-11-28 02:49:00,19.6,-13.1,30.03,East,82,0.0,0.0,22,0.00,,---,0.00,VWS V14.01,2013-11-28 07:49:00,
2013-11-28 02:54:00,19.8,-12.9,30.06,SSW,196,0.0,0.0,22,0.00,,---,0.00,VWS V14.01,2013-11-28 07:54:00,
2013-11-28 02:59:00,19.8,-12.9,30.06,NW,306,0.0,0.0,22,0.00,,---,0.00,VWS V14.01,2013-11-28 07:59:00,
2013-11-28 03:04:00,19.8,-12.9,30.06,West,265,0.0,0.0,22,0.00,,---,0.00,VWS V14.01,2013-11-28 08:04:00,
2013-11-28 03:09:00,19.6,-13.1,30.06,ENE,75,0.0,0.0,22,0.00,,---,0.00,VWS V14.01,2013-11-28 08:09:00,
2013-11-28 03:14:00,19.6,-13.1,30.06,NE,41,0.0,0.0,22,0.00,,---,0.00,VWS V14.01,2013-11-28 08:14:00,
2013-11-28 03:20:00,19.4,-12.3,30.06,ESE,109,0.0,0.0,23,0.00,,---,0.00,VWS V14.01,2013-11-28 08:20:00,
2013-11-28 03:25:00,19.4,-12.3,30.06,ESE,108,0.0,0.0,23,0.00,,---,0.00,VWS V14.01,2013-11-28 08:25:00,
2013-11-28 03:30:00,19.2,-12.5,30.06,East,81,0.0,0.0,23,0.00,,---,0.00,VWS V14.01,2013-11-28 08:30:00,
2013-11-28 03:35:00,19.2,-12.5,30.06,SSE,151,0.0,0.0,23,0.00,,---,0.00,VWS V14.01,2013-11-28 08:35:00,
2013-11-28 03:40:00,19.0,-12.6,30.06,SSE,151,0.0,0.0,23,0.00,,---,0.00,VWS V14.01,2013-11-28 08:40:00,
2013-11-28 03:45:00,19.0,-12.6,30.06,ESE,108,0.0,0.0,23,0.00,,---,0.00,VWS V14.01,2013-11-28 08:45:00,
2013-11-28 03:50:00,19.0,-12.6,30.06,SSE,151,0.0,0.0,23,0.00,,---,0.00,VWS V14.01,2013-11-28 08:50:00,
2013-11-28 03:55:00,19.0,-12.6,30.06,East,89,0.0,0.0,23,0.00,,---,0.00,VWS V14.01,2013-11-28 08:55:00,
2013-11-28 04:00:00,19.0,-12.6,30.06,ESE,111,0.0,0.0,23,0.00,,---,0.00,VWS V14.01,2013-11-28 09:00:00,
2013-11-28 04:05:00,19.2,-12.5,30.06,East,85,0.0,0.0,23,0.00,,---,0.00,VWS V14.01,2013-11-28 09:05:00,
2013-11-28 04:10:00,19.2,-12.5,30.06,East,84,0.0,0.0,23,0.00,,---,0.00,VWS V14.01,2013-11-28 09:10:00,
2013-11-28 04:15:00,19.2,-12.5,30.06,ESE,102,0.0,0.0,23,0.00,,---,0.00,VWS V14.01,2013-11-28 09:15:00,
2013-11-28 04:20:00,19.0,-12.6,30.06,ESE,102,0.0,0.0,23,0.00,,---,0.00,VWS V14.01,2013-11-28 09:20:00,
2013-11-28 04:25:00,19.0,-12.6,30.06,ESE,102,0.0,0.0,23,0.00,,---,0.00,VWS V14.01,2013-11-28 09:25:00,
2013-11-28 04:30:00,18.7,-13.0,30.06,ESE,102,0.0,0.0,23,0.00,,---,0.00,VWS V14.01,2013-11-28 09:30:00,
2013-11-28 04:35:00,18.7,-13.0,30.06,East,84,0.0,0.0,23,0.00,,---,0.00,VWS V14.01,2013-11-28 09:35:00,
2013-11-28 04:40:00,18.7,-13.0,30.09,East,84,0.0,0.0,23,0.00,,---,0.00,VWS V14.01,2013-11-28 09:40:00,
2013-11-28 04:45:00,18.7,-13.0,30.09,East,84,0.0,0.0,23,0.00,,---,0.00,VWS V14.01,2013-11-28 09:45:00,
2013-11-28 04:50:00,18.5,-13.1,30.09,East,84,0.0,0.0,23,0.00,,---,0.00,VWS V14.01,2013-11-28 09:50:00,
2013-11-28 04:55:00,18.5,-13.1,30.09,East,84,0.0,0.0,23,0.00,,---,0.00,VWS V14.01,2013-11-28 09:55:00,
2013-11-28 05:00:00,18.3,-13.3,30.09,East,84,0.0,0.0,23,0.00,,---,0.00,VWS V14.01,2013-11-28 10:00:00,
2013-11-28 05:05:00,18.1,-13.4,30.09,East,84,0.0,0.0,23,0.00,,---,0.00,VWS V14.01,2013-11-28 10:05:00,
2013-11-28 05:11:00,18.1,-13.4,30.09,East,84,0.0,0.0,23,0.00,,---,0.00,VWS V14.01,2013-11-28 10:11:00,
2013-11-28 05:16:00,18.0,-13.6,30.09,East,84,0.0,0.0,23,0.00,,---,0.00,VWS V14.01,2013-11-28 10:16:00,
2013-11-28 05:21:00,18.0,-13.6,30.09,East,97,0.0,0.0,23,0.00,,---,0.00,VWS V14.01,2013-11-28 10:21:00,
2013-11-28 05:26:00,18.0,-13.6,30.09,East,97,0.0,0.0,23,0.00,,---,0.00,VWS V14.01,2013-11-28 10:26:00,
2013-11-28 05:31:00,18.0,-13.6,30.09,East,97,0.0,0.0,23,0.00,,---,0.00,VWS V14.01,2013-11-28 10:31:00,
2013-11-28 05:36:00,18.0,-13.6,30.09,East,97,0.0,0.0,23,0.00,,---,0.00,VWS V14.01,2013-11-28 10:36:00,
2013-11-28 05:41:00,18.0,-13.6,30.09,East,85,0.0,0.0,23,0.00,,---,0.00,VWS V14.01,2013-11-28 10:41:00,
2013-11-28 05:46:00,18.1,-13.4,30.09,SE,141,0.0,0.0,23,0.00,,---,0.00,VWS V14.01,2013-11-28 10:46:00,
2013-11-28 05:51:00,18.3,-13.3,30.09,SSE,149,0.0,0.0,23,0.00,,---,0.00,VWS V14.01,2013-11-28 10:51:00,
2013-11-28 05:56:00,18.1,-13.4,30.12,SSE,149,0.0,0.0,23,0.00,,---,0.00,VWS V14.01,2013-11-28 10:56:00,
2013-11-28 06:01:00,17.8,-13.7,30.12,SSE,149,0.0,0.0,23,0.00,,---,0.00,VWS V14.01,2013-11-28 11:01:00,
2013-11-28 06:06:00,17.6,-13.9,30.12,SSE,149,0.0,0.0,23,0.00,,---,0.00,VWS V14.01,2013-11-28 11:06:00,
2013-11-28 06:11:00,17.4,-14.0,30.12,SSE,149,0.0,0.0,23,0.00,,---,0.00,VWS V14.01,2013-11-28 11:11:00,
2013-11-28 06:16:00,17.2,-14.2,30.12,SSE,149,0.0,0.0,23,0.00,,---,0.00,VWS V14.01,2013-11-28 11:16:00,
2013-11-28 06:21:00,17.1,-14.3,30.12,SSE,149,0.0,0.0,23,0.00,,---,0.00,VWS V14.01,2013-11-28 11:21:00,
2013-11-28 06:26:00,16.9,-14.5,30.12,SSE,149,0.0,0.0,23,0.00,,---,0.00,VWS V14.01,2013-11-28 11:26:00,
2013-11-28 06:32:00,16.7,-14.6,30.12,SSE,149,0.0,0.0,23,0.00,,---,0.00,VWS V14.01,2013-11-28 11:32:00,
2013-11-28 06:37:00,16.7,-14.6,30.12,SSE,149,0.0,0.0,23,0.00,,---,0.00,VWS V14.01,2013-11-28 11:37:00,
2013-11-28 06:42:00,16.5,-14.8,30.12,SSE,149,0.0,0.0,23,0.00,,---,0.00,VWS V14.01,2013-11-28 11:42:00,
2013-11-28 06:47:00,16.5,-14.8,30.12,SSE,149,0.0,0.0,23,0.00,,---,0.00,VWS V14.01,2013-11-28 11:47:00,
2013-11-28 06:52:00,16.5,-14.8,30.12,SSE,149,0.0,0.0,23,0.00,,---,0.00,VWS V14.01,2013-11-28 11:52:00,
2013-11-28 06:57:00,16.5,-14.8,30.15,SSE,149,0.0,0.0,23,0.00,,---,0.00,VWS V14.01,2013-11-28 11:57:00,
2013-11-28 07:02:00,16.5,-14.8,30.15,SSE,149,0.0,0.0,23,0.00,,---,0.00,VWS V14.01,2013-11-28 12:02:00,
2013-11-28 07:07:00,16.5,-14.8,30.15,SSE,149,0.0,0.0,23,0.00,,---,0.00,VWS V14.01,2013-11-28 12:07:00,
2013-11-28 07:12:00,16.5,-14.8,30.15,SSE,149,0.0,0.0,23,0.00,,---,0.00,VWS V14.01,2013-11-28 12:12:00,
2013-11-28 07:17:00,16.7,-14.6,30.15,SSE,149,0.0,0.0,23,0.00,,---,0.00,VWS V14.01,2013-11-28 12:17:00,
2013-11-28 07:22:00,16.7,-14.6,30.15,SSE,149,0.0,0.0,23,0.00,,---,0.00,VWS V14.01,2013-11-28 12:22:00,
2013-11-28 07:27:00,16.7,-14.6,30.15,SSE,149,0.0,0.0,23,0.00,,---,0.00,VWS V14.01,2013-11-28 12:27:00,
2013-11-28 07:32:00,16.7,-14.6,30.15,SSE,149,0.0,0.0,23,0.00,,---,0.00,VWS V14.01,2013-11-28 12:32:00,
2013-11-28 07:37:00,16.9,-14.5,30.15,SSE,149,0.0,0.0,23,0.00,,---,0.00,VWS V14.01,2013-11-28 12:37:00,
2013-11-28 07:42:00,16.7,-14.6,30.15,SSE,149,0.0,0.0,23,0.00,,---,0.00,VWS V14.01,2013-11-28 12:42:00,
2013-11-28 07:47:00,16.7,-14.6,30.15,SSE,149,0.0,0.0,23,0.00,,---,0.00,VWS V14.01,2013-11-28 12:47:00,
2013-11-28 07:52:00,16.7,-14.6,30.18,SSE,149,0.0,0.0,23,0.00,,---,0.00,VWS V14.01,2013-11-28 12:52:00,
2013-11-28 07:57:00,16.7,-14.6,30.18,SSE,149,0.0,0.0,23,0.00,,---,0.00,VWS V14.01,2013-11-28 12:57:00,
2013-11-28 08:02:00,16.7,-14.6,30.18,SSW,202,0.0,0.0,23,0.00,,---,0.00,VWS V14.01,2013-11-28 13:02:00,
2013-11-28 08:07:00,16.9,-14.5,30.18,SW,226,0.0,0.0,23,0.00,,---,0.00,VWS V14.01,2013-11-28 13:07:00,
2013-11-28 08:13:00,17.1,-14.3,30.18,SW,226,0.0,0.0,23,0.00,,---,0.00,VWS V14.01,2013-11-28 13:13:00,
2013-11-28 08:18:00,17.1,-14.3,30.18,SW,226,0.0,0.0,23,0.00,,---,0.00,VWS V14.01,2013-11-28 13:18:00,
2013-11-28 08:23:00,17.2,-14.2,30.18,West,259,0.0,0.0,23,0.00,,---,0.00,VWS V14.01,2013-11-28 13:23:00,
2013-11-28 08:28:00,17.4,-14.0,30.18,West,260,0.0,0.0,23,0.00,,---,0.00,VWS V14.01,2013-11-28 13:28:00,
2013-11-28 08:33:00,17.4,-14.0,30.18,West,259,0.0,0.0,23,0.00,,---,0.00,VWS V14.01,2013-11-28 13:33:00,
2013-11-28 08:38:00,17.4,-14.0,30.18,West,259,0.0,0.0,23,0.00,,---,0.00,VWS V14.01,2013-11-28 13:38:00,
2013-11-28 08:43:00,17.6,-13.9,30.18,West,259,0.0,0.0,23,0.00,,---,0.00,VWS V14.01,2013-11-28 13:43:00,
2013-11-28 08:48:00,17.6,-13.9,30.18,West,259,0.0,0.0,23,0.00,,---,0.00,VWS V14.01,2013-11-28 13:48:00,
2013-11-28 08:53:00,18.0,-13.6,30.21,West,259,0.0,0.0,23,0.00,,---,0.00,VWS V14.01,2013-11-28 13:53:00,
2013-11-28 08:58:00,18.3,-13.3,30.21,South,187,0.0,0.0,23,0.00,,---,0.00,VWS V14.01,2013-11-28 13:58:00,
2013-11-28 09:03:00,18.5,-13.1,30.21,South,187,0.0,0.0,23,0.00,,---,0.00,VWS V14.01,2013-11-28 14:03:00,
2013-11-28 09:08:00,18.9,-12.8,30.21,West,270,0.0,0.0,23,0.00,,---,0.00,VWS V14.01,2013-11-28 14:08:00,
2013-11-28 09:14:00,19.2,-12.5,30.21,SW,215,0.0,0.0,23,0.00,,---,0.00,VWS V14.01,2013-11-28 14:14:00,
2013-11-28 09:19:00,19.6,-13.1,30.21,SSW,209,0.0,0.0,22,0.00,,---,0.00,VWS V14.01,2013-11-28 14:19:00,
2013-11-28 09:24:00,19.9,-12.8,30.21,SW,220,0.0,0.0,22,0.00,,---,0.00,VWS V14.01,2013-11-28 14:24:00,
2013-11-28 09:28:00,20.3,-12.5,30.21,SW,235,0.0,0.0,22,0.00,,---,0.00,VWS V14.01,2013-11-28 14:28:00,
2013-11-28 09:34:00,20.5,-12.3,30.21,WSW,239,0.0,0.0,22,0.00,,---,0.00,VWS V14.01,2013-11-28 14:34:00,
2013-11-28 09:39:00,20.8,-12.0,30.21,SSW,209,0.0,0.0,22,0.00,,---,0.00,VWS V14.01,2013-11-28 14:39:00,
2013-11-28 09:44:00,20.8,-12.0,30.21,SW,214,0.0,0.0,22,0.00,,---,0.00,VWS V14.01,2013-11-28 14:44:00,
2013-11-28 09:49:00,21.2,-11.7,30.21,South,186,0.0,0.0,22,0.00,,---,0.00,VWS V14.01,2013-11-28 14:49:00,
2013-11-28 09:54:00,21.4,-11.5,30.21,South,175,0.0,0.0,22,0.00,,---,0.00,VWS V14.01,2013-11-28 14:54:00,
2013-11-28 09:59:00,21.6,-11.4,30.21,SSW,205,0.0,0.0,22,0.00,,---,0.00,VWS V14.01,2013-11-28 14:59:00,
2013-11-28 10:04:00,21.7,-11.2,30.21,SW,223,0.0,0.0,22,0.00,,---,0.00,VWS V14.01,2013-11-28 15:04:00,
2013-11-28 10:09:00,21.9,-11.1,30.24,SW,232,0.0,0.0,22,0.00,,---,0.00,VWS V14.01,2013-11-28 15:09:00,
2013-11-28 10:14:00,22.3,-10.8,30.24,SSW,212,0.0,0.0,22,0.00,,---,0.00,VWS V14.01,2013-11-28 15:14:00,
2013-11-28 10:19:00,22.8,-10.3,30.24,SW,221,0.0,0.0,22,0.00,,---,0.00,VWS V14.01,2013-11-28 15:19:00,
2013-11-28 10:25:00,23.0,-10.2,30.21,SW,224,0.0,0.0,22,0.00,,---,0.00,VWS V14.01,2013-11-28 15:25:00,
2013-11-28 10:30:00,23.5,-9.7,30.21,South,185,0.0,0.0,22,0.00,,---,0.00,VWS V14.01,2013-11-28 15:30:00,
2013-11-28 10:35:00,23.5,-9.7,30.21,SSW,193,0.0,0.0,22,0.00,,---,0.00,VWS V14.01,2013-11-28 15:35:00,
2013-11-28 10:40:00,23.9,-9.4,30.21,SW,217,0.0,0.0,22,0.00,,---,0.00,VWS V14.01,2013-11-28 15:40:00,
2013-11-28 10:45:00,24.4,-8.9,30.21,SW,222,0.0,0.0,22,0.00,,---,0.00,VWS V14.01,2013-11-28 15:45:00,
2013-11-28 10:50:00,24.4,-8.9,30.21,SW,236,0.0,0.0,22,0.00,,---,0.00,VWS V14.01,2013-11-28 15:50:00,
2013-11-28 10:55:00,24.8,-8.6,30.21,WSW,238,0.0,0.0,22,0.00,,---,0.00,VWS V14.01,2013-11-28 15:55:00,
2013-11-28 11:00:00,25.0,-9.4,30.21,SW,218,0.0,0.0,21,0.00,,---,0.00,VWS V14.01,2013-11-28 16:00:00,
2013-11-28 11:05:00,25.2,-9.3,30.21,WSW,238,0.0,0.0,21,0.00,,---,0.00,VWS V14.01,2013-11-28 16:05:00,
2013-11-28 11:10:00,25.2,-9.3,30.21,SSE,167,0.0,0.0,21,0.00,,---,0.00,VWS V14.01,2013-11-28 16:10:00,
2013-11-28 11:15:00,25.3,-9.1,30.21,SSW,210,0.0,0.0,21,0.00,,---,0.00,VWS V14.01,2013-11-28 16:15:00,
2013-11-28 11:20:00,25.5,-9.0,30.21,SSW,213,0.0,0.0,21,0.00,,---,0.00,VWS V14.01,2013-11-28 16:20:00,
2013-11-28 11:25:00,25.7,-8.8,30.21,WSW,250,0.0,0.0,21,0.00,,---,0.00,VWS V14.01,2013-11-28 16:25:00,
2013-11-28 11:30:00,26.1,-8.5,30.21,SW,224,0.0,0.0,21,0.00,,---,0.00,VWS V14.01,2013-11-28 16:30:00,
2013-11-28 11:35:00,26.6,-8.1,30.21,South,187,0.0,0.0,21,0.00,,---,0.00,VWS V14.01,2013-11-28 16:35:00,
2013-11-28 11:40:00,27.0,-7.8,30.21,SW,235,0.0,0.0,21,0.00,,---,0.00,VWS V14.01,2013-11-28 16:40:00,
2013-11-28 11:45:00,27.1,-7.6,30.21,SW,222,0.0,0.0,21,0.00,,---,0.00,VWS V14.01,2013-11-28 16:45:00,
2013-11-28 11:50:00,27.5,-7.3,30.21,WSW,257,0.0,0.0,21,0.00,,---,0.00,VWS V14.01,2013-11-28 16:50:00,
2013-11-28 11:56:00,27.9,-7.0,30.21,SW,227,0.0,0.0,21,0.00,,---,0.00,VWS V14.01,2013-11-28 16:56:00,
2013-11-28 12:01:00,28.4,-6.5,30.21,SSW,207,0.0,0.0,21,0.00,,---,0.00,VWS V14.01,2013-11-28 17:01:00,
2013-11-28 12:06:00,28.6,-7.4,30.21,SSW,208,0.0,0.0,20,0.00,,---,0.00,VWS V14.01,2013-11-28 17:06:00,
2013-11-28 12:11:00,28.4,-6.5,30.21,WNW,286,0.0,0.0,21,0.00,,---,0.00,VWS V14.01,2013-11-28 17:11:00,
2013-11-28 12:16:00,28.8,-7.2,30.21,WSW,252,0.0,0.0,20,0.00,,---,0.00,VWS V14.01,2013-11-28 17:16:00,
2013-11-28 12:21:00,29.3,-6.8,30.21,SSW,207,4.9,7.6,20,0.00,,---,0.00,VWS V14.01,2013-11-28 17:21:00,
2013-11-28 12:26:00,29.3,-6.8,30.21,SSW,201,3.1,4.9,20,0.00,,---,0.00,VWS V14.01,2013-11-28 17:26:00,
2013-11-28 12:31:00,29.5,-6.6,30.21,SW,222,2.7,2.7,20,0.00,,---,0.00,VWS V14.01,2013-11-28 17:31:00,
2013-11-28 12:36:00,29.7,-6.5,30.21,West,262,5.4,5.4,20,0.00,,---,0.00,VWS V14.01,2013-11-28 17:36:00,
2013-11-28 12:41:00,29.7,-6.5,30.21,West,267,0.0,2.7,20,0.00,,---,0.00,VWS V14.01,2013-11-28 17:41:00,
2013-11-28 12:46:00,30.2,-6.0,30.21,SSW,205,0.0,0.0,20,0.00,,---,0.00,VWS V14.01,2013-11-28 17:46:00,
2013-11-28 12:51:00,30.9,-5.4,30.21,West,264,8.1,8.1,20,0.00,,---,0.00,VWS V14.01,2013-11-28 17:51:00,
2013-11-28 12:56:00,31.1,-5.3,30.21,SSW,194,5.4,5.4,20,0.00,,---,0.00,VWS V14.01,2013-11-28 17:56:00,
2013-11-28 13:01:00,30.9,-5.4,30.21,SW,221,3.1,3.1,20,0.00,,---,0.00,VWS V14.01,2013-11-28 18:01:00,
2013-11-28 13:06:00,31.3,-5.1,30.21,South,184,3.1,6.3,20,0.00,,---,0.00,VWS V14.01,2013-11-28 18:06:00,
2013-11-28 13:11:00,31.8,-4.7,30.18,SW,217,4.0,4.0,20,0.00,,---,0.00,VWS V14.01,2013-11-28 18:11:00,
2013-11-28 13:16:00,32.0,-4.5,30.18,SSW,196,2.2,3.6,20,0.00,,---,0.00,VWS V14.01,2013-11-28 18:16:00,
2013-11-28 13:21:00,32.0,-4.5,30.18,SSW,213,2.7,4.0,20,0.00,,---,0.00,VWS V14.01,2013-11-28 18:21:00,
2013-11-28 13:27:00,32.5,-4.1,30.18,ESE,114,2.7,2.7,20,0.00,,---,0.00,VWS V14.01,2013-11-28 18:27:00,
2013-11-28 13:32:00,33.1,-3.6,30.18,ESE,112,3.1,3.1,20,0.00,,---,0.00,VWS V14.01,2013-11-28 18:32:00,
2013-11-28 13:37:00,33.4,-3.3,30.18,WSW,248,2.7,3.6,20,0.00,,---,0.00,VWS V14.01,2013-11-28 18:37:00,
2013-11-28 13:42:00,33.1,-3.6,30.18,SW,224,2.7,4.0,20,0.00,,---,0.00,VWS V14.01,2013-11-28 18:42:00,
2013-11-28 13:47:00,33.1,-3.6,30.18,SSW,206,3.1,3.1,20,0.00,,---,0.00,VWS V14.01,2013-11-28 18:47:00,
2013-11-28 13:52:00,32.9,-3.8,30.18,SW,219,0.0,2.2,20,0.00,,---,0.00,VWS V14.01,2013-11-28 18:52:00,
2013-11-28 13:57:00,33.4,-3.3,30.18,WSW,248,5.8,6.3,20,0.00,,---,0.00,VWS V14.01,2013-11-28 18:57:00,
2013-11-28 14:02:00,33.6,-3.2,30.18,West,259,4.0,5.8,20,0.00,,---,0.00,VWS V14.01,2013-11-28 19:02:00,
2013-11-28 14:07:00,33.4,-3.3,30.18,SSW,206,7.6,7.6,20,0.00,,---,0.00,VWS V14.01,2013-11-28 19:07:00,
2013-11-28 14:12:00,33.4,-3.3,30.18,WSW,248,5.8,7.6,20,0.00,,---,0.00,VWS V14.01,2013-11-28 19:12:00,
2013-11-28 14:17:00,33.1,-3.6,30.18,WNW,289,3.1,7.6,20,0.00,,---,0.00,VWS V14.01,2013-11-28 19:17:00,
2013-11-28 14:22:00,33.1,-3.6,30.18,SW,233,2.7,4.9,20,0.00,,---,0.00,VWS V14.01,2013-11-28 19:22:00,
2013-11-28 14:27:00,33.1,-3.6,30.18,SW,231,4.9,4.9,20,0.00,,---,0.00,VWS V14.01,2013-11-28 19:27:00,
2013-11-28 14:32:00,33.3,-3.5,30.18,WSW,254,4.9,5.4,20,0.00,,---,0.00,VWS V14.01,2013-11-28 19:32:00,
2013-11-28 14:37:00,33.6,-3.2,30.18,WSW,244,3.1,5.4,20,0.00,,---,0.00,VWS V14.01,2013-11-28 19:37:00,
2013-11-28 14:42:00,33.8,-3.0,30.18,WSW,238,2.2,3.1,20,0.00,,---,0.00,VWS V14.01,2013-11-28 19:42:00,
2013-11-28 14:47:00,34.0,-2.9,30.18,SW,235,3.6,3.6,20,0.00,,---,0.00,VWS V14.01,2013-11-28 19:47:00,
2013-11-28 14:52:00,34.3,-2.6,30.18,WSW,248,3.6,4.9,20,0.00,,---,0.00,VWS V14.01,2013-11-28 19:52:00,
2013-11-28 14:57:00,34.5,-2.4,30.18,SW,230,5.4,5.8,20,0.00,,---,0.00,VWS V14.01,2013-11-28 19:57:00,
2013-11-28 15:02:00,34.3,-2.6,30.18,SW,226,4.0,5.8,20,0.00,,---,0.00,VWS V14.01,2013-11-28 20:02:00,
2013-11-28 15:07:00,34.2,-2.7,30.18,West,269,3.1,4.0,20,0.00,,---,0.00,VWS V14.01,2013-11-28 20:07:00,
2013-11-28 15:12:00,34.3,-2.6,30.18,WSW,255,3.6,4.5,20,0.00,,---,0.00,VWS V14.01,2013-11-28 20:12:00,
2013-11-28 15:17:00,34.2,-2.7,30.18,WSW,258,3.1,3.1,20,0.00,,---,0.00,VWS V14.01,2013-11-28 20:17:00,
2013-11-28 15:22:00,34.5,-2.4,30.18,WSW,248,7.6,7.6,20,0.00,,---,0.00,VWS V14.01,2013-11-28 20:22:00,
2013-11-28 15:28:00,34.7,-2.3,30.18,WSW,255,2.7,2.7,20,0.00,,---,0.00,VWS V14.01,2013-11-28 20:28:00,
2013-11-28 15:33:00,34.7,-2.3,30.18,WSW,245,5.4,5.8,20,0.00,,---,0.00,VWS V14.01,2013-11-28 20:33:00,
2013-11-28 15:38:00,34.0,-2.9,30.18,West,263,4.0,5.8,20,0.00,,---,0.00,VWS V14.01,2013-11-28 20:38:00,
2013-11-28 15:43:00,34.2,-2.7,30.18,SW,220,3.6,4.0,20,0.00,,---,0.00,VWS V14.01,2013-11-28 20:43:00,
2013-11-28 15:48:00,34.3,-2.6,30.18,WSW,250,4.0,4.0,20,0.00,,---,0.00,VWS V14.01,2013-11-28 20:48:00,
2013-11-28 15:53:00,34.5,-2.4,30.18,SW,217,3.6,5.8,20,0.00,,---,0.00,VWS V14.01,2013-11-28 20:53:00,
2013-11-28 15:58:00,34.3,-2.6,30.18,WNW,287,3.6,5.8,20,0.00,,---,0.00,VWS V14.01,2013-11-28 20:58:00,
2013-11-28 16:03:00,34.3,-2.6,30.18,West,271,4.0,4.0,20,0.00,,---,0.00,VWS V14.01,2013-11-28 21:03:00,
2013-11-28 16:08:00,34.2,-2.7,30.18,WSW,254,5.4,6.7,20,0.00,,---,0.00,VWS V14.01,2013-11-28 21:08:00,
2013-11-28 16:13:00,33.8,-3.0,30.18,SW,217,4.0,4.9,20,0.00,,---,0.00,VWS V14.01,2013-11-28 21:13:00,
2013-11-28 16:18:00,33.8,-3.0,30.18,West,260,5.4,5.8,20,0.00,,---,0.00,VWS V14.01,2013-11-28 21:18:00,
2013-11-28 16:23:00,33.6,-3.2,30.21,SW,221,2.7,4.0,20,0.00,,---,0.00,VWS V14.01,2013-11-28 21:23:00,
2013-11-28 16:28:00,33.6,-3.2,30.21,SSW,209,4.0,4.9,20,0.00,,---,0.00,VWS V14.01,2013-11-28 21:28:00,
2013-11-28 16:33:00,33.3,-3.5,30.21,SW,221,2.7,5.4,20,0.00,,---,0.00,VWS V14.01,2013-11-28 21:33:00,
2013-11-28 16:38:00,33.1,-3.6,30.21,West,259,2.7,3.6,20,0.00,,---,0.00,VWS V14.01,2013-11-28 21:38:00,
2013-11-28 16:43:00,32.9,-3.8,30.21,WSW,243,2.7,5.4,20,0.00,,---,0.00,VWS V14.01,2013-11-28 21:43:00,
2013-11-28 16:48:00,32.5,-4.1,30.21,West,264,0.0,0.0,20,0.00,,---,0.00,VWS V14.01,2013-11-28 21:48:00,
2013-11-28 16:53:00,32.2,-4.4,30.21,SW,215,4.9,5.8,20,0.00,,---,0.00,VWS V14.01,2013-11-28 21:53:00,
2013-11-28 16:58:00,31.5,-5.0,30.21,NW,306,2.7,2.7,20,0.00,,---,0.00,VWS V14.01,2013-11-28 21:58:00,
2013-11-28 17:03:00,31.1,-5.3,30.21,West,261,3.6,3.6,20,0.00,,---,0.00,VWS V14.01,2013-11-28 22:03:00,
2013-11-28 17:08:00,30.6,-5.7,30.21,West,264,0.0,0.0,20,0.00,,---,0.00,VWS V14.01,2013-11-28 22:08:00,
2013-11-28 17:13:00,30.2,-6.0,30.21,WSW,238,0.0,3.6,20,0.00,,---,0.00,VWS V14.01,2013-11-28 22:13:00,
2013-11-28 17:18:00,29.7,-6.5,30.21,WSW,237,0.0,0.0,20,0.00,,---,0.00,VWS V14.01,2013-11-28 22:18:00,
2013-11-28 17:23:00,29.5,-6.6,30.21,WSW,246,0.0,0.0,20,0.00,,---,0.00,VWS V14.01,2013-11-28 22:23:00,
2013-11-28 17:28:00,29.1,-6.9,30.21,WSW,241,0.0,0.0,20,0.00,,---,0.00,VWS V14.01,2013-11-28 22:28:00,
2013-11-28 17:33:00,28.8,-7.2,30.21,WSW,241,0.0,0.0,20,0.00,,---,0.00,VWS V14.01,2013-11-28 22:33:00,
2013-11-28 17:38:00,28.6,-7.4,30.21,WSW,241,0.0,0.0,20,0.00,,---,0.00,VWS V14.01,2013-11-28 22:38:00,
2013-11-28 17:43:00,28.6,-7.4,30.21,West,264,2.7,3.6,20,0.00,,---,0.00,VWS V14.01,2013-11-28 22:43:00,
2013-11-28 17:48:00,28.8,-7.2,30.21,NE,56,0.0,3.6,20,0.00,,---,0.00,VWS V14.01,2013-11-28 22:48:00,
2013-11-28 17:53:00,28.9,-7.1,30.21,NE,56,0.0,0.0,20,0.00,,---,0.00,VWS V14.01,2013-11-28 22:53:00,
2013-11-28 17:58:00,28.8,-7.2,30.21,East,84,0.0,0.0,20,0.00,,---,0.00,VWS V14.01,2013-11-28 22:58:00,
2013-11-28 18:03:00,28.8,-7.2,30.21,WNW,292,2.7,5.4,20,0.00,,---,0.00,VWS V14.01,2013-11-28 23:03:00,
2013-11-28 18:08:00,28.9,-7.1,30.21,South,185,0.0,0.0,20,0.00,,---,0.00,VWS V14.01,2013-11-28 23:08:00,
2013-11-28 18:13:00,28.8,-7.2,30.21,NW,322,0.0,0.0,20,0.00,,---,0.00,VWS V14.01,2013-11-28 23:13:00,
2013-11-28 18:18:00,28.8,-7.2,30.21,SSW,211,0.0,0.0,20,0.00,,---,0.00,VWS V14.01,2013-11-28 23:18:00,
2013-11-28 18:23:00,28.8,-7.2,30.21,SE,138,0.0,0.0,20,0.00,,---,0.00,VWS V14.01,2013-11-28 23:23:00,
2013-11-28 18:28:00,28.6,-7.4,30.21,SE,138,0.0,0.0,20,0.00,,---,0.00,VWS V14.01,2013-11-28 23:28:00,
2013-11-28 18:33:00,28.2,-6.7,30.21,SE,133,0.0,0.0,21,0.00,,---,0.00,VWS V14.01,2013-11-28 23:33:00,
2013-11-28 18:38:00,27.9,-7.0,30.21,ENE,69,3.6,3.6,21,0.00,,---,0.00,VWS V14.01,2013-11-28 23:38:00,
2013-11-28 18:43:00,27.7,-7.2,30.21,East,82,0.0,2.2,21,0.00,,---,0.00,VWS V14.01,2013-11-28 23:43:00,
2013-11-28 18:48:00,27.5,-7.3,30.21,ENE,67,0.0,0.0,21,0.00,,---,0.00,VWS V14.01,2013-11-28 23:48:00,
2013-11-28 18:53:00,27.1,-7.6,30.21,ENE,65,0.0,2.7,21,0.00,,---,0.00,VWS V14.01,2013-11-28 23:53:00,
2013-11-28 18:58:00,27.5,-7.3,30.21,ENE,71,0.0,0.0,21,0.00,,---,0.00,VWS V14.01,2013-11-28 23:58:00,
2013-11-28 19:03:00,27.7,-7.2,30.21,ENE,71,0.0,0.0,21,0.00,,---,0.00,VWS V14.01,2013-11-29 00:03:00,
2013-11-28 19:08:00,27.9,-7.0,30.21,SW,233,0.0,2.7,21,0.00,,---,0.00,VWS V14.01,2013-11-29 00:08:00,
2013-11-28 19:13:00,28.4,-6.5,30.21,SW,221,2.2,3.6,21,0.00,,---,0.00,VWS V14.01,2013-11-29 00:13:00,
2013-11-28 19:18:00,28.4,-6.5,30.21,East,98,0.0,0.0,21,0.00,,---,0.00,VWS V14.01,2013-11-29 00:18:00,
2013-11-28 19:23:00,27.7,-7.2,30.21,East,98,0.0,0.0,21,0.00,,---,0.00,VWS V14.01,2013-11-29 00:23:00,
2013-11-28 19:28:00,26.8,-7.9,30.21,ENE,65,2.7,4.0,21,0.00,,---,0.00,VWS V14.01,2013-11-29 00:28:00,
2013-11-28 19:33:00,26.2,-8.4,30.21,ENE,66,0.0,0.0,21,0.00,,---,0.00,VWS V14.01,2013-11-29 00:33:00,
2013-11-28 19:38:00,25.9,-8.7,30.21,ENE,66,0.0,0.0,21,0.00,,---,0.00,VWS V14.01,2013-11-29 00:38:00,
2013-11-28 19:43:00,25.7,-8.8,30.21,ENE,66,0.0,0.0,21,0.00,,---,0.00,VWS V14.01,2013-11-29 00:43:00,
2013-11-28 19:48:00,25.7,-8.8,30.21,ENE,60,3.1,3.1,21,0.00,,---,0.00,VWS V14.01,2013-11-29 00:48:00,
2013-11-28 19:53:00,25.9,-8.7,30.24,ENE,60,0.0,0.0,21,0.00,,---,0.00,VWS V14.01,2013-11-29 00:53:00,
2013-11-28 19:58:00,25.5,-9.0,30.24,ENE,60,0.0,0.0,21,0.00,,---,0.00,VWS V14.01,2013-11-29 00:58:00,
2013-11-28 20:03:00,25.3,-9.1,30.24,ENE,60,0.0,0.0,21,0.00,,---,0.00,VWS V14.01,2013-11-29 01:03:00,
2013-11-28 20:08:00,25.2,-9.3,30.24,ENE,60,0.0,0.0,21,0.00,,---,0.00,VWS V14.01,2013-11-29 01:08:00,
2013-11-28 20:13:00,25.3,-9.1,30.24,ENE,60,0.0,0.0,21,0.00,,---,0.00,VWS V14.01,2013-11-29 01:13:00,
2013-11-28 20:18:00,25.2,-9.3,30.24,ENE,60,0.0,0.0,21,0.00,,---,0.00,VWS V14.01,2013-11-29 01:18:00,
2013-11-28 20:23:00,25.2,-9.3,30.24,ENE,60,0.0,0.0,21,0.00,,---,0.00,VWS V14.01,2013-11-29 01:23:00,
2013-11-28 20:28:00,25.2,-9.3,30.24,ENE,59,3.6,3.6,21,0.00,,---,0.00,VWS V14.01,2013-11-29 01:28:00,
2013-11-28 20:33:00,25.2,-9.3,30.24,ENE,60,2.7,3.1,21,0.00,,---,0.00,VWS V14.01,2013-11-29 01:33:00,
2013-11-28 20:38:00,25.2,-9.3,30.24,ENE,60,2.2,2.7,21,0.00,,---,0.00,VWS V14.01,2013-11-29 01:38:00,
2013-11-28 20:43:00,25.2,-9.3,30.24,NE,46,2.7,4.0,21,0.00,,---,0.00,VWS V14.01,2013-11-29 01:43:00,
2013-11-28 20:48:00,25.2,-9.3,30.24,NE,47,0.0,0.0,21,0.00,,---,0.00,VWS V14.01,2013-11-29 01:48:00,
2013-11-28 20:53:00,25.2,-9.3,30.24,NE,47,2.2,2.7,21,0.00,,---,0.00,VWS V14.01,2013-11-29 01:53:00,
2013-11-28 20:58:00,25.2,-9.3,30.24,NE,47,0.0,0.0,21,0.00,,---,0.00,VWS V14.01,2013-11-29 01:58:00,
2013-11-28 21:03:00,25.2,-9.3,30.24,NE,47,0.0,0.0,21,0.00,,---,0.00,VWS V14.01,2013-11-29 02:03:00,
2013-11-28 21:08:00,25.2,-9.3,30.24,NE,47,0.0,0.0,21,0.00,,---,0.00,VWS V14.01,2013-11-29 02:08:00,
2013-11-28 21:13:00,25.2,-9.3,30.24,NE,47,0.0,0.0,21,0.00,,---,0.00,VWS V14.01,2013-11-29 02:13:00,
2013-11-28 21:18:00,25.0,-9.4,30.24,NE,47,0.0,0.0,21,0.00,,---,0.00,VWS V14.01,2013-11-29 02:18:00,
2013-11-28 21:23:00,25.0,-9.4,30.24,NE,47,0.0,0.0,21,0.00,,---,0.00,VWS V14.01,2013-11-29 02:23:00,
2013-11-28 21:28:00,25.0,-9.4,30.24,NE,47,0.0,0.0,21,0.00,,---,0.00,VWS V14.01,2013-11-29 02:28:00,
2013-11-28 21:33:00,25.0,-9.4,30.24,NE,47,0.0,0.0,21,0.00,,---,0.00,VWS V14.01,2013-11-29 02:33:00,
2013-11-28 21:38:00,25.0,-9.4,30.24,NE,47,2.7,3.1,21,0.00,,---,0.00,VWS V14.01,2013-11-29 02:38:00,
2013-11-28 21:43:00,25.0,-9.4,30.24,NE,47,2.7,2.7,21,0.00,,---,0.00,VWS V14.01,2013-11-29 02:43:00,
2013-11-28 21:48:00,25.0,-9.4,30.24,NE,47,2.7,2.7,21,0.00,,---,0.00,VWS V14.01,2013-11-29 02:48:00,
2013-11-28 21:53:00,24.8,-8.6,30.24,NE,47,2.2,2.2,22,0.00,,---,0.00,VWS V14.01,2013-11-29 02:53:00,
2013-11-28 21:58:00,24.6,-8.8,30.24,NE,47,0.0,0.0,22,0.00,,---,0.00,VWS V14.01,2013-11-29 02:58:00,
2013-11-28 22:03:00,24.6,-8.8,30.24,NE,47,0.0,0.0,22,0.00,,---,0.00,VWS V14.01,2013-11-29 03:03:00,
2013-11-28 22:08:00,24.6,-8.8,30.24,NE,47,0.0,0.0,22,0.00,,---,0.00,VWS V14.01,2013-11-29 03:08:00,
2013-11-28 22:13:00,24.6,-8.8,30.27,NE,47,0.0,0.0,22,0.00,,---,0.00,VWS V14.01,2013-11-29 03:13:00,
2013-11-28 22:18:00,24.6,-8.8,30.27,NE,47,0.0,0.0,22,0.00,,---,0.00,VWS V14.01,2013-11-29 03:18:00,
2013-11-28 22:23:00,25.0,-9.4,30.27,NE,47,0.0,0.0,21,0.00,,---,0.00,VWS V14.01,2013-11-29 03:23:00,
2013-11-28 22:28:00,25.3,-9.1,30.27,ENE,67,2.7,3.1,21,0.00,,---,0.00,VWS V14.01,2013-11-29 03:28:00,
2013-11-28 22:33:00,26.1,-8.5,30.27,ENE,65,0.0,0.0,21,0.00,,---,0.00,VWS V14.01,2013-11-29 03:33:00,
2013-11-28 22:38:00,26.4,-8.2,30.27,ENE,59,0.0,0.0,21,0.00,,---,0.00,VWS V14.01,2013-11-29 03:38:00,
2013-11-28 22:43:00,26.6,-8.1,30.27,ENE,59,0.0,0.0,21,0.00,,---,0.00,VWS V14.01,2013-11-29 03:43:00,
2013-11-28 22:48:00,26.2,-8.4,30.27,ENE,59,0.0,0.0,21,0.00,,---,0.00,VWS V14.01,2013-11-29 03:48:00,
2013-11-28 22:53:00,25.7,-8.8,30.27,ENE,59,0.0,0.0,21,0.00,,---,0.00,VWS V14.01,2013-11-29 03:53:00,
2013-11-28 22:58:00,25.3,-9.1,30.27,SW,216,0.0,0.0,21,0.00,,---,0.00,VWS V14.01,2013-11-29 03:58:00,
2013-11-28 23:03:00,25.0,-9.4,30.27,SW,216,0.0,0.0,21,0.00,,---,0.00,VWS V14.01,2013-11-29 04:03:00,
2013-11-28 23:08:00,24.6,-8.8,30.27,SW,216,0.0,0.0,22,0.00,,---,0.00,VWS V14.01,2013-11-29 04:08:00,
2013-11-28 23:13:00,24.8,-8.6,30.27,SW,216,0.0,0.0,22,0.00,,---,0.00,VWS V14.01,2013-11-29 04:13:00,
2013-11-28 23:18:00,25.2,-9.3,30.27,SW,216,0.0,0.0,21,0.00,,---,0.00,VWS V14.01,2013-11-29 04:18:00,
2013-11-28 23:23:00,25.5,-9.0,30.27,SW,216,0.0,0.0,21,0.00,,---,0.00,VWS V14.01,2013-11-29 04:23:00,
2013-11-28 23:28:00,25.9,-8.7,30.27,SW,216,0.0,0.0,21,0.00,,---,0.00,VWS V14.01,2013-11-29 04:28:00,
2013-11-28 23:33:00,25.9,-8.7,30.27,SW,216,0.0,0.0,21,0.00,,---,0.00,VWS V14.01,2013-11-29 04:33:00,
2013-11-28 23:38:00,25.9,-8.7,30.27,SW,216,0.0,0.0,21,0.00,,---,0.00,VWS V14.01,2013-11-29 04:38:00,
2013-11-28 23:43:00,25.7,-8.8,30.27,SW,216,0.0,0.0,21,0.00,,---,0.00,VWS V14.01,2013-11-29 04:43:00,
2013-11-28 23:48:00,25.9,-8.7,30.27,SW,216,0.0,0.0,21,0.00,,---,0.00,VWS V14.01,2013-11-29 04:48:00,
2013-11-28 23:53:00,26.1,-8.5,30.27,SW,216,0.0,0.0,21,0.00,,---,0.00,VWS V14.01,2013-11-29 04:53:00,
2013-11-28 23:58:00,26.4,-8.2,30.27,SW,216,0.0,0.0,21,0.00,,---,0.00,VWS V14.01,2013-11-29 04:58:00,